Fairchild Air Force Base, WA

5:16 PM PDT on August 31, 2016 (GMT -0700)
Fairchild Air Force Base

Weather History for KSKA - September, 2013

Change the Weather History Date:

Thursday, September 12, 2013

  Actual Average Record
Temperature  
Mean Temperature 74 °F -  
Max Temperature 86 °F 71 °F 89 °F (2002)
Min Temperature 62 °F 47 °F 36 °F (2014)
Cooling Degree Days 9    
Growing Degree Days 24 (Base 50)    
Moisture  
Dew Point 50 °F    
Average Humidity 45    
Maximum Humidity 63    
Minimum Humidity 27    
Precipitation  
Precipitation 0.00 in - - ()
Sea Level Pressure  
Sea Level Pressure 29.99 in    
Wind  
Wind Speed 5 mph (North)    
Max Wind Speed 12 mph    
Max Gust Speed -    
Visibility 10 miles    
Events      
Averages and records for this station are not official NWS values.
T = Trace of Precipitation, MM = Missing Value Source: NWS Daily Summary

Daily Weather History Graph

Daily Weather History Graph

Search for Another Location

Airport or City:

Trip Planner

Search our weather history database for the weather conditions in past years. The results will help you decide how hot, cold, wet, or windy it might be!

Date:

Astronomy

Sep. 12, 2013 Rise Set
Actual Time 6:24 AM PDT 7:08 PM PDT
Civil Twilight 5:53 AM PDT 7:39 PM PDT
Nautical Twilight 5:16 AM PDT 8:16 PM PDT
Astronomical Twilight 4:37 AM PDT 8:54 PM PDT
Moon 2:24 PM PDT (9/12) 11:40 PM PDT (9/12)
Length of Visible Light 13h 46m
Length of Day
12h 43m
Waxing Crescent, 51% of the Moon is Illuminated
Sep 12
Waxing Crescent
Sep 19
Full
Sep 26
Last Quarter
Oct 4
New
Oct 11
First Quarter

Hourly Weather History & Observations

Time (PDT) Temp. Dew Point Humidity Pressure Visibility Wind Dir Wind Speed Gust Speed Precip Events Conditions
12:56 AM 66.2 °F 50.0 °F 56% 30.04 in 10.0 mi NNE 5.8 mph - N/A   Clear
1:56 AM 66.2 °F 50.0 °F 56% 30.04 in 10.0 mi NNE 3.5 mph - N/A   Clear
2:56 AM 64.4 °F 50.0 °F 59% 30.04 in 10.0 mi North 2.3 mph - N/A   Clear
3:56 AM 66.2 °F 50.0 °F 56% 30.04 in 10.0 mi North 5.8 mph - N/A   Clear
4:56 AM 66.2 °F 50.0 °F 56% 30.04 in 10.0 mi NNE 5.8 mph - N/A   Clear
5:56 AM 62.6 °F 50.0 °F 63% 30.04 in 10.0 mi NNE 5.8 mph - N/A   Clear
6:56 AM 62.6 °F 50.0 °F 63% 30.04 in 10.0 mi North 6.9 mph - N/A   Clear
7:56 AM 68.0 °F 51.8 °F 56% 30.05 in 10.0 mi NNE 5.8 mph - N/A   Clear
8:56 AM 71.6 °F 51.8 °F 50% 30.05 in 10.0 mi NNE 6.9 mph - N/A   Clear
9:56 AM 77.0 °F 51.8 °F 41% 30.05 in 10.0 mi North 8.1 mph - N/A   Clear
10:56 AM 80.6 °F 50.0 °F 34% 30.03 in 10.0 mi NE 11.5 mph - N/A   Clear
11:56 AM 82.4 °F 50.0 °F 32% 30.02 in 10.0 mi NE 8.1 mph - N/A   Clear
12:56 PM 86.0 °F 50.0 °F 29% 30.00 in 10.0 mi Variable 5.8 mph - N/A   Clear
1:56 PM 86.0 °F 50.0 °F 29% 29.99 in 10.0 mi Variable 2.3 mph - N/A   Clear
2:56 PM 86.0 °F 48.2 °F 27% 29.97 in 10.0 mi Variable 2.3 mph - N/A   Partly Cloudy
3:56 PM 86.0 °F 50.0 °F 29% 29.95 in 10.0 mi NNW 6.9 mph - N/A   Clear
4:56 PM 86.0 °F 50.0 °F 29% 29.94 in 10.0 mi NNW 4.6 mph - N/A   Clear
5:56 PM 86.0 °F 50.0 °F 29% 29.93 in 10.0 mi North 4.6 mph - N/A   Clear
6:56 PM 82.4 °F 50.0 °F 32% 29.92 in 10.0 mi WNW 3.5 mph - N/A   Clear
7:56 PM 73.4 °F 51.8 °F 47% 29.92 in 10.0 mi WSW 4.6 mph - N/A   Clear
8:56 PM 71.6 °F 51.8 °F 50% 29.92 in 10.0 mi WSW 2.3 mph - N/A   Clear
9:56 PM 69.8 °F 50.0 °F 49% 29.91 in 10.0 mi WSW 2.3 mph - N/A   Clear
10:56 PM 66.2 °F 50.0 °F 56% 29.91 in 10.0 mi SW 6.9 mph - N/A   Clear
11:56 PM 66.2 °F 50.0 °F 56% 29.90 in 10.0 mi Calm Calm - N/A   Clear